Tracking 30107 objects as of 18-Jan-2025
HD Live streaming from Space Station
objects crossing your sky now

COSMOS 1275 DEB

Track COSMOS 1275 DEB now!
10-day predictions


NORAD ID: 14364
Int'l Code: 1981-053JA
Perigee: 808.5 km
Apogee: 852.7 km
Inclination: 82.8 °
Period: 101.4 minutes
Semi major axis: 7201 km
RCS: 0.0121 m2 (small)
Launch date: June 4, 1981
Source: Commonwealth of Independent States (former USSR) (CIS)
Launch site: PLESETSK MISSILE AND SPACE COMPLEX (PKMTR)

Note: This is SATELLITE DEBRIS
Your satellite tracking list
Your tracking list is empty




NASA's NSSDC Master Catalog

Two Line Element Set (TLE):
1 14364U 81053HX  25017.90953794  .00008741  00000-0  40393-2 0  9997
2 14364  82.7812 337.8681 0030699 346.3803  13.6546 14.20559326154314
Source of the keplerian elements: AFSPC